Hlavní strana
METAR-TAF:

METAR-TAF

Letiště :

Thomson-McDuffie County Airport

Thomson, Georgie, Spojené státy americké

zeměpisná šířka: 33-31-46N, zeměpisná délka: 082-30-59W, výška: 152 m

Aktuální stav počasí

Zpráva byla vytvořena před 20 minutami, v 18:15 UTC
Východní vítr 4 kt
Teplota 8°C
Vlhkost vzduchu 100%
Tlak 1018 hPa
Viditelnost: 6.4 km
Zataženo ve výšce 600 ft
déšť, kouřmo

METAR: KHQU 151815Z AUTO 08004KT 4SM RA BR OVC006 08/08 A3007 RMK AO2 P0002 T00820079

Čas: 13:35 (18:35 UTC)


TAF: chybějící

Stav a předpovědi počasí z více než 4 000 letišť (zprávy METAR a TAF).

Červené a žluté tečky na mapě představují dostupné meteorologické stanice.

Když kurzor umístíte na tečku, zobrazí se název stanice.

Pak kliknutím zobrazíte stav a předpověď počasí.

Chcete-li změnit mapu, kliknutím na zelené tlačítko se znaménkem +mapu přiblížíte, kliknutím na zelené tlačítko se znaménkem – mapu oddálíte a kliknutím na zelené šipky přejdete na sousední mapy.


METAR-TAF: